Погода в Медвежьегорске

Хотите узнать прогноз погоды в Медвежьегорске? Тогда Вам сюда: Погода в Медвежьегорске

Поиск расширенной информации на нашем сайте:

Полезная информация:

Новости сайта



02.01.2020
Опубликован Долгосрочный прогноз погоды по городам России и ближнего зарубежья на январь 2020 года.
Карты: Прогноз на январь и февраль 2020 года, Сравнение прогнозируемой аномалии приземной температуры воздуха на январь 2020 года по разным моделям.




Погода в Медвежьегорске - сегодня

Время (UTC), дата Ветер
(°,м/с) 
Видим.   Явления Облачность Т
(°С)
Тd
(°С)
f(%) Тe
(°С)
Pmin
(гПа)
dP
(гПа)
Po
(мм)
O2
(г/м3)
Тmin Tmax R s Состояние
почвы
12 29.11.20 150 (ЮВ) 10 км  {снег}  10/10 300 м 
[St]
-2.8 -3.7 94 -2  1035.1  -0.9  769  313           
15 29.11.20 150 (ЮВ) 10 км  {снег}  10/10 180 м 
[St]
-2.6 -3.4 94 -2  1034.4  -0.7  768  313      0.2     
18 29.11.20 120 (ЮВ) 10 км  слаб. переохл. морось (гололёд){снег}  10/10 150 м 
[St]
-2.7 -3.2 96 -2  1033.5  -0.9  767  313    -2.5  0.3     
21 29.11.20 140 (ЮВ) 10 км  {морось}  10/10 180 м 
[St]
-1.6 -2.3 95 -1  1032.5  -1  767  311           
00 30.11.20 120 (ЮВ) 10 км  {морось}  10/10 120 м 
[St]
-2.7 -3.1 97 -4  1031.3  -1.2  766  312           
03 30.11.20 140 (ЮВ) 4000 м  дымка [диам. гололёда 0 мм]  10/10 100 м 
[St]
-1.1 -1.4 98 -2  1029.3  -1.9  764  309  -2.8    0.1     
06 30.11.20 110 (В) 10 км  слаб. снег{морось} [диам. гололёда 0 мм]  10/10 120 м 
[St]
-1.4 -1.8 97 -2  1027.9  -1.4  763  309  -2.8    0.0  11  равномерный
сухой снег
100% 
09 30.11.20 140 (ЮВ) 10 км  слаб. снег  10/10 180 м 
[Frnb|Ns]
-0.1 -0.7 96 +1  1026.7  -1.1  763  307           
12 30.11.20 150 (ЮВ) 10 км  слаб. дождь{снег}  10/10 150 м 
[Frnb|Ns]
+0.7 +0.1 96 +1  1024.8  -1.9  761  306           
15 30.11.20 150 (ЮВ) 10 км  слаб. дождь  10/10 120 м 
[Frnb|Ns]
+0.8 +0.5 98 +1  1023  -1.8  760  305      0.9     
18 30.11.20 140 (ЮВ) 10 км  слаб. снег{дождь}  10/10 180 м 
[Frnb|Ns]
+0.7 +0.4 98 +1  1021  -2  758  305    +1     
21 30.11.20 140 (ЮВ) 4000 м  слаб. снег  10/10 100 м 
[Frnb|Ns]
+0.4 +0.1 98 +1  1019.3  -1.6  757  305           
00 01.12.20 150 (ЮВ) 10 км  {снег}  10/10 180 м 
[Frnb|Ns]
+0.4 +0.1 98 +1  1018.5  -0.8  756  304           
03 01.12.20 110 (В) 4000 м  ливневой снег [диам. отлож. мокр. снега 1 мм]  10/10 210 м кучево-дожд. 
[Cb cap]
+0 -0.6 96 +1  1019.2  0.6  757  305  -0.1       
06 01.12.20 150 (ЮВ) 4000 м  слаб. ливневой снег [диам. отлож. мокр. снега 7 мм]  10/10 300 м кучево-дожд. 
[Cb cap]
-0.7 -1.4 95 1019.5  0.3  757  306  -0.7    14  равномерный
мокрый или
старый снег
100% 
09 01.12.20 150 (ЮВ) 10 км  слаб. ливневой снег  10/10 450 м кучево-дожд. 
[Cb cap]
-1 -2.1 92 1020.1  0.6  758  307           
12 01.12.20 140 (ЮВ) 10 км  в посл. час ливневой снег  10/10 420 м кучево-дожд. 
[Cb cap]
-0.7 -1.5 94 1019.9  -0.2  757  306           
15 01.12.20 140 (ЮВ) 10 км  слаб. ливневой снег  10/10 360 м кучево-дожд. 
[Cb cap]
-0.4 -1.2 94 1019.9  757  306         
21 01.12.20 290 (З) 10 км  слаб. ливневой дождь  9/9 630 м кучево-дожд. 
[Cb cap]
+0.9 +0.2 95 +2  1020.7  1.9  758  304           
00 02.12.20 290 (З) 10 км  в посл. час ливневой снег  10/10 1020 м кучево-дожд. 
[Cb cap]
+0.6 -0.3 94 +1  1023.5  2.7  760  306           
03 02.12.20 тихо ()   10 км  слаб. ливневой снег  10/10 630 м кучево-дожд. 
[Cb cap]
+0.2 -0.5 95 1025.4  1.9  762  307  -0.4       
06 02.12.20 300 (СЗ) 10 км  в посл. час ливневой снег  9/9 600 м кучево-дожд. 
[Cb cap]
-0.3 -1.1 94 1026.9  1.5  763  308  -0.3    0.7  15  равномерный
мокрый или
старый снег
100% 
09 02.12.20 290 (З) 20000 м  {ливн. осадки}  10/10 720 м 
[Sc]
-0.4 -2 89 1028.3  1.3  764  308           
12 02.12.20 280 (З) 20000 м  слаб. ливневой снег  9/9 500 м кучево-дожд. 
[Cb cap]
-1.1 -2.5 90 -1  1028.7  0.4  764  309           
15 02.12.20 тихо ()   10 км  {ливн. осадки}  10/10 500 м кучево-дожд. 
[Cb cap]
-1.2 -1.8 96 -1  1029.2  0.5  764  310      0.3     
Время (UTC), дата Ветер
(°,м/с) 
Видим.   Явления Облачность Т
(°С)
Тd
(°С)
f(%) Тe
(°С)
Pmin
(гПа)
dP
(гПа)
Po
(мм)
O2
(г/м3)
Тmin Tmax R s Состояние
почвы

Для получения пояснительной информации подведите курсор к названию столбца.

ПОГОДА в Медвежьегорске - архив

Всё, что Вы хотите узнать о погоде в Медвежьегорске - удобно и подробно!

Выберите нужную дату (начиная с 1 января 2019* года) и нажмите кнопку "Найти".
Будут отображены архивные сводки погоды по пункту Медвежьегорск, начиная с указанной даты.


Отображать данные в формате CSV (для использования в таблицах Excel)


Внимание! Наш архив погоды предназначен исключительно для личного некоммерческого использования в познавательных целях. Если Вам необходимы официальные справки о состоянии погоды (для производственных, юридических, коммерческих и т.п. целей), обращайтесь в органы Росгидромета.

*Примечание: данная дата относится к архиву по метеостанциям СССР (Россия, СНГ, Балтия).
Архив по метеостанциям Зарубежной Европы и Азии (кроме Китая) хранится 10 дней, по другим регионам земного шара (Китай, Африка, Америка, Австралия, Океания) - 1 день.

Медвежьегорск - район местоположения метеостанции


Название, широта, долгота, высота метеостанции:
Медвежьегорск 62.9°ш. 34.4°д. 81 м над ур. моря [Российская Федерация]

Дополнительная информация

В oтличие oт бoльшинства пoгoдных сайтoв мы публикуем пoдрoбную метеoинфoрмацию в детальнoм прoфессиoнальнoм фoрмате.

Характеристики температуры и влажнoсти вoздуха измеряются на высoте 2 м в тени вдали oт зданий и деревьев.
Скoрoсть ветра измеряется на высoте 10 м (на урoвне рoста челoвека скoрoсть ветра ниже в 1.5-2 раза). Если метеoстанция нахoдится в гoрoде или в лесу, тo скoрoсть ветра занижена на 2-4 м/с пo сравнению с oткрытым местoм. Скoрoсть ветра над акватoриями крупных рек и oзёр, а также на вершинах хoлмoв на 2-5 м/с выше, чем в oбычных услoвиях.
Атмoсфернoе давление в разных тoчках местнoсти мoжет значительнo oтличаться oт давления на метеoстанции, в зависимoсти oт услoвий рельефа (при пoдъёме на 10 м давление пoнижается примернo на 1 мм рт.ст.).